Tracking 32136 objects as of 11-Nov-2025
HD Live streaming from Space Station
objects crossing your sky now

DELTA 1 DEB

Track DELTA 1 DEB now!
10-day predictions


NORAD ID: 21339
Int'l Code: 1975-052BH
Perigee: 1,084.9 km
Apogee: 1,661.4 km
Inclination: 99.5 °
Period: 113.0 minutes
Semi major axis: 7744 km
RCS: 0.0936 m2 (small)
Launch date: June 12, 1975
Source: United States (US)
Launch site: AIR FORCE WESTERN TEST RANGE (AFWTR)

Note: This is SATELLITE DEBRIS
Your satellite tracking list
Your tracking list is empty




NASA's NSSDC Master Catalog

Two Line Element Set (TLE):
1 21339U 75052BH  25313.95740201  .00000126  00000-0  58107-3 0  9992
2 21339  99.5491 121.5047 0372181 347.3829 164.7784 12.73925457601712
Source of the keplerian elements: AFSPC